AC4AG Weather Reports


Display with metric or nautical units.
time (UTC)temp
F
wind
direction
speed
MPH
gust
MPH
rain 1hr
in
rain 24hr
in
rain mn
in
humidity
%
barometer
mb
20260903093806 72 78 1.0 2.0 0.00 0.00 0.00 99 1017.6
20260903093301 72 123 0.0 2.0 0.00 0.00 0.00 99 1017.7
20260903092801 72 115 1.0 1.0 0.00 0.00 0.00 99 1017.7
20260903092256 72 56 1.0 2.0 0.00 0.00 0.00 99 1017.4
20260903091756 72 61 1.0 2.0 0.00 0.00 0.00 99 1017.5
20260903091250 72 99 0.0 1.0 0.00 0.00 0.00 99 1017.3
20260903090746 72 108 1.0 2.0 0.00 0.00 0.00 99 1017.5
20260903090244 72 73 1.0 2.0 0.00 0.00 0.00 99 1017.6
20260903085743 72 68 1.0 2.0 0.00 0.00 0.00 99 1017.3
20260903085238 72 113 0.0 0.0 0.00 0.00 0.00 99 1017.5
20260903084736 72 77 1.0 2.0 0.00 0.00 0.00 99 1017.5
20260903084231 72 64 0.0 0.0 0.00 0.00 0.00 99 1017.3
20260903083727 72 138 0.0 0.0 0.00 0.00 0.00 99 1017.3
20260903083221 72 121 0.0 0.0 0.00 0.00 0.00 99 1017.1
20260903082720 72 100 1.0 1.0 0.00 0.00 0.00 99 1017.4
20260903082217 72 82 1.0 2.0 0.00 0.00 0.00 99 1017.3
20260903081716 72 103 0.0 0.0 0.00 0.00 0.00 99 1017.3
20260903081212 72 108 0.0 0.0 0.00 0.00 0.00 99 1017.1
20260903080708 72 98 0.0 0.0 0.00 0.00 0.00 99 1017.4
20260903080206 73 95 0.0 0.0 0.00 0.00 0.00 99 1017.6
20260903075704 73 111 0.0 0.0 0.00 0.00 0.00 99 1017.3
20260903075200 73 113 0.0 0.0 0.00 0.00 0.00 99 1017.1
20260903074659 72 104 0.0 0.0 0.00 0.00 0.00 99 1017.3
20260903074154 72 124 0.0 0.0 0.00 0.00 0.00 99 1017.1
20260903073649 72 133 0.0 0.0 0.00 0.00 0.00 99 1017.4
20260903073144 72 128 0.0 0.0 0.00 0.00 0.00 99 1017.3
20260903072640 73 121 0.0 0.0 0.00 0.00 0.00 99 1017.1
20260903072137 73 121 0.0 0.0 0.00 0.00 0.00 99 1017.0
20260903071633 73 107 0.0 0.0 0.00 0.00 0.00 99 1017.3
20260903071128 73 130 0.0 0.0 0.00 0.00 0.00 99 1017.3
20260903070628 73 119 0.0 0.0 0.00 0.00 0.00 99 1017.0
20260903070124 73 108 0.0 0.0 0.00 0.00 0.00 99 1017.1
20260903065623 73 147 0.0 0.0 0.00 0.00 0.00 99 1017.4
20260903065118 73 132 0.0 1.0 0.00 0.00 0.00 99 1017.3
20260903064618 73 112 0.0 0.0 0.00 0.00 0.00 99 1017.1
20260903064113 73 141 0.0 0.0 0.00 0.00 0.00 99 1017.4
20260903063609 73 95 0.0 0.0 0.00 0.00 0.00 99 1017.1
20260903063104 73 129 0.0 0.0 0.00 0.00 0.00 99 1017.3
20260903062559 73 122 0.0 0.0 0.00 0.00 0.00 99 1017.6
20260903062054 73 117 0.0 0.0 0.00 0.00 0.00 99 1017.3
20260903061549 73 80 0.0 0.0 0.00 0.00 0.00 99 1017.5
20260903061049 73 80 0.0 0.0 0.00 0.00 0.00 99 1017.1
20260903060549 73 80 0.0 0.0 0.00 0.00 0.00 99 1017.5
20260903060044 73 80 0.0 0.0 0.00 0.00 0.00 99 1017.3
20260903055541 73 80 0.0 0.0 0.00 0.00 0.00 99 1017.4
20260903055040 74 80 0.0 0.0 0.00 0.00 0.00 99 1017.1
20260903054535 74 80 0.0 0.0 0.00 0.00 0.00 99 1017.4
20260903054031 74 80 0.0 0.0 0.00 0.00 0.00 99 1017.4
20260903053526 73 80 0.0 0.0 0.00 0.00 0.00 99 1017.3
20260903053023 73 80 0.0 0.0 0.00 0.00 0.00 99 1017.5
20260903052518 73 80 0.0 0.0 0.00 0.00 0.00 99 1017.4
20260903052014 74 80 0.0 0.0 0.00 0.00 0.00 99 1017.3
20260903051514 74 80 0.0 0.0 0.00 0.00 0.00 99 1017.3
20260903051010 74 80 0.0 0.0 0.00 0.00 0.00 99 1017.5
20260903050508 74 80 0.0 0.0 0.00 0.00 0.00 99 1017.3
20260903050004 74 80 0.0 0.0 0.00 0.00 0.00 99 1017.1
20260903045458 74 95 0.0 0.0 0.00 0.00 0.00 99 1017.1
20260903044955 73 95 0.0 0.0 0.00 0.00 0.00 99 1017.4
20260903044450 74 110 0.0 0.0 0.00 0.00 0.00 99 1017.4
20260903043946 74 110 0.0 0.0 0.00 0.00 0.00 99 1017.4
20260903043442 74 110 0.0 0.0 0.00 0.00 0.00 99 1017.3
20260903042940 74 110 0.0 0.0 0.00 0.00 0.00 98 1017.3
20260903042436 74 110 0.0 0.0 0.00 0.00 0.00 98 1017.1
20260903041931 75 110 0.0 0.0 0.00 0.00 0.00 98 1017.1
20260903041428 75 110 0.0 0.0 0.00 0.00 0.00 98 1017.3
20260903040923 75 110 0.0 0.0 0.00 0.00 0.00 97 1017.4
20260903040422 75 110 0.0 0.0 0.00 0.00 0.00 97 1017.4
20260903035918 75 110 0.0 0.0 0.00 0.00 0.00 96 1017.4
20260903035414 75 110 0.0 0.0 0.00 0.00 0.00 95 1017.1
20260903034908 75 110 0.0 0.0 0.00 0.00 0.00 95 1017.3
20260903034403 75 110 0.0 0.0 0.00 0.00 0.00 95 1017.1
20260903033859 75 110 0.0 0.0 0.00 0.00 0.00 94 1017.4
20260903033354 76 110 0.0 0.0 0.00 0.00 0.00 93 1017.4
20260903032854 76 110 0.0 0.0 0.00 0.00 0.00 92 1017.4
20260903032350 77 110 0.0 0.0 0.00 0.00 0.00 92 1017.4
20260903031845 77 110 0.0 0.0 0.00 0.00 0.00 91 1017.4
20260903031344 78 110 0.0 0.0 0.00 0.00 0.00 91 1017.1
20260903030840 77 117 0.0 0.0 0.00 0.00 0.00 92 1017.3
20260903030336 77 132 0.0 0.0 0.00 0.00 0.00 92 1017.4
20260903025832 77 139 0.0 0.0 0.00 0.00 0.00 91 1017.1
20260903025327 77 124 0.0 0.0 0.00 0.00 0.00 91 1017.4
20260903024826 77 123 0.0 0.0 0.00 0.00 0.00 90 1017.0
20260903024326 78 123 0.0 0.0 0.00 0.00 0.00 89 1017.0
20260903023821 78 126 0.0 0.0 0.00 0.00 0.00 89 1017.3
20260903023317 78 126 0.0 0.0 0.00 0.00 0.00 88 1017.3
20260903022813 78 126 0.0 0.0 0.00 0.00 0.00 88 1017.4
20260903022311 78 131 0.0 0.0 0.00 0.00 0.00 87 1017.1
20260903021811 78 130 0.0 0.0 0.00 0.00 0.00 86 1017.3
20260903021306 79 130 0.0 0.0 0.00 0.00 0.00 85 1017.3
20260903020806 79 132 0.0 0.0 0.00 0.00 0.00 83 1017.1
20260903020301 80 123 0.0 0.0 0.00 0.00 0.00 82 1017.1
20260903015756 80 122 0.0 0.0 0.00 0.00 0.00 82 1017.3
20260903015252 80 144 0.0 0.0 0.00 0.00 0.00 82 1017.1
20260903014747 80 146 0.0 0.0 0.00 0.00 0.00 80 1017.0
20260903014246 81 146 0.0 0.0 0.00 0.00 0.00 79 1016.9
20260903013742 80 120 0.0 1.0 0.00 0.00 0.00 79 1016.9
20260903013240 81 145 0.0 0.0 0.00 0.00 0.00 79 1016.8
20260903012740 82 147 0.0 0.0 0.00 0.00 0.00 78 1016.8
20260903012240 82 111 0.0 1.0 0.00 0.00 0.00 76 1016.6
20260903011734 81 117 1.0 1.0 0.00 0.00 0.00 78 1016.6
20260903011233 81 140 0.0 0.0 0.00 0.00 0.00 79 1016.7
20260903010729 81 149 0.0 0.0 0.00 0.00 0.00 78 1016.7
20260903010229 82 151 0.0 0.0 0.00 0.00 0.00 78 1016.5
20260903005728 83 140 0.0 0.0 0.00 0.00 0.00 76 1016.4
20260903005223 83 140 0.0 0.0 0.00 0.00 0.00 74 1016.5
20260903004719 84 140 0.0 0.0 0.00 0.00 0.00 73 1016.6
20260903004214 84 140 0.0 0.0 0.00 0.00 0.00 70 1016.4
20260903003709 84 144 0.0 0.0 0.00 0.00 0.00 70 1016.6
20260903003205 84 143 0.0 1.0 0.00 0.00 0.00 68 1016.4
20260903002659 84 134 0.0 1.0 0.00 0.00 0.00 72 1016.4
20260903002154 85 161 0.0 0.0 0.00 0.00 0.00 72 1016.3
20260903001649 86 161 0.0 0.0 0.00 0.00 0.00 71 1016.3
20260903001142 86 162 0.0 0.0 0.00 0.00 0.00 68 1016.3
20260903000638 87 162 0.0 0.0 0.00 0.00 0.00 65 1016.3
20260903000138 88 162 0.0 0.0 0.00 0.00 0.00 65 1016.2
20260902235636 89 162 0.0 0.0 0.00 0.00 0.00 64 1016.2
20260902235132 89 162 0.0 0.0 0.00 0.00 0.00 63 1016.3
20260902234631 90 162 0.0 0.0 0.00 0.00 0.00 60 1016.2
20260902234130 90 162 0.0 0.0 0.00 0.00 0.00 60 1016.2
20260902233625 91 161 0.0 0.0 0.00 0.00 0.00 61 1016.2
20260902233119 92 162 0.0 0.0 0.00 0.00 0.00 58 1016.5
20260902232614 92 162 0.0 0.0 0.00 0.00 0.00 58 1016.4
20260902232113 92 173 1.0 1.0 0.00 0.00 0.00 56 1016.4
20260902231613 93 157 0.0 0.0 0.00 0.00 0.00 58 1016.3
20260902231113 93 156 0.0 1.0 0.00 0.00 0.00 56 1016.5
20260902230608 94 190 1.0 2.0 0.00 0.00 0.00 53 1016.5
20260902230107 94 164 0.0 1.0 0.00 0.00 0.00 52 1016.3
20260902225602 93 169 1.0 1.0 0.00 0.00 0.00 53 1016.6
20260902225101 93 160 1.0 1.0 0.00 0.00 0.00 55 1016.5
20260902224600 93 147 0.0 1.0 0.00 0.00 0.00 53 1016.7
20260902224056 93 174 1.0 2.0 0.00 0.00 0.00 53 1016.5
20260902223552 94 169 1.0 2.0 0.00 0.00 0.00 53 1016.4
20260902223051 95 198 2.0 2.0 0.00 0.00 0.00 52 1016.4
20260902222550 94 157 0.0 1.0 0.00 0.00 0.00 53 1016.4
20260902222049 93 165 1.0 2.0 0.00 0.00 0.00 53 1016.4
20260902221544 94 213 2.0 2.0 0.00 0.00 0.00 53 1016.6
20260902221039 93 177 1.0 1.0 0.00 0.00 0.00 53 1016.8
20260902220535 93 162 1.0 5.0 0.00 0.00 0.00 52 1016.7
20260902220034 95 188 2.0 5.0 0.00 0.00 0.00 50 1016.7
20260902215531 94 141 0.0 2.0 0.00 0.00 0.00 51 1016.5
20260902215026 93 178 2.0 2.0 0.00 0.00 0.00 51 1016.6
20260902214525 94 280 3.0 3.0 0.00 0.00 0.00 51 1016.7
20260902214025 93 263 4.0 5.0 0.00 0.00 0.00 52 1016.6
20260902213521 93 207 2.0 5.0 0.00 0.00 0.00 52 1016.6
20260902213020 94 230 3.0 5.0 0.00 0.00 0.00 53 1016.9
20260902212516 94 175 1.0 2.0 0.00 0.00 0.00 52 1016.6
20260902212012 93 138 2.0 6.0 0.00 0.00 0.00 53 1016.5
20260902211508 93 15 3.0 5.0 0.00 0.00 0.00 52 1016.8
20260902210956 93 297 5.0 6.0 0.00 0.00 0.00 53 1016.7
20260902210451 93 188 1.0 3.0 0.00 0.00 0.00 53 1016.8
20260902205949 94 209 4.0 5.0 0.00 0.00 0.00 54 1016.8
20260902205444 93 193 1.0 2.0 0.00 0.00 0.00 55 1016.9
20260902204940 93 167 2.0 5.0 0.00 0.00 0.00 53 1017.0
20260902204439 93 191 2.0 3.0 0.00 0.00 0.00 54 1016.9
20260902203935 94 270 5.0 8.0 0.00 0.00 0.00 55 1017.1
20260902203430 94 158 1.0 2.0 0.00 0.00 0.00 54 1016.9
20260902202929 93 155 0.0 3.0 0.00 0.00 0.00 54 1016.9
20260902202425 92 161 0.0 6.0 0.00 0.00 0.00 55 1017.3
20260902201922 93 202 6.0 7.0 0.00 0.00 0.00 55 1017.4
20260902201417 92 40 3.0 5.0 0.00 0.00 0.00 55 1017.3
20260902200917 92 189 5.0 7.0 0.00 0.00 0.00 55 1017.3
20260902200412 92 187 2.0 5.0 0.00 0.00 0.00 55 1017.5
20260902195908 92 133 3.0 7.0 0.00 0.00 0.00 55 1017.5
20260902195408 93 262 5.0 6.0 0.00 0.00 0.00 55 1017.5
20260902194902 92 246 2.0 5.0 0.00 0.00 0.00 55 1017.5
20260902194402 92 297 4.0 6.0 0.00 0.00 0.00 56 1017.6
20260902193856 93 190 3.0 5.0 0.00 0.00 0.00 57 1017.8
20260902193353 92 158 3.0 3.0 0.00 0.00 0.00 56 1017.8
20260902192852 93 226 3.0 5.0 0.00 0.00 0.00 55 1018.0
20260902192351 93 187 4.0 6.0 0.00 0.00 0.00 53 1017.8
20260902191845 92 138 1.0 3.0 0.00 0.00 0.00 55 1018.0
20260902191341 91 158 1.0 5.0 0.00 0.00 0.00 56 1017.8
20260902190835 92 200 6.0 9.0 0.00 0.00 0.00 56 1018.2
20260902190334 91 241 3.0 6.0 0.00 0.00 0.00 56 1018.0
20260902185831 91 266 5.0 9.0 0.00 0.00 0.00 56 1018.1
20260902185326 91 272 5.0 6.0 0.00 0.00 0.00 57 1018.2
20260902184822 92 264 8.0 10.0 0.00 0.00 0.00 56 1018.2
20260902184317 92 263 5.0 6.0 0.00 0.00 0.00 55 1018.2
20260902183813 93 247 4.0 6.0 0.00 0.00 0.00 56 1018.2
20260902183309 92 198 3.0 3.0 0.00 0.00 0.00 55 1018.3
20260902182804 91 162 1.0 8.0 0.00 0.00 0.00 57 1018.4
20260902182301 91 255 5.0 6.0 0.00 0.00 0.00 56 1018.5
20260902181757 92 218 6.0 8.0 0.00 0.00 0.00 55 1018.4
20260902181252 92 220 3.0 6.0 0.00 0.00 0.00 56 1018.5
20260902180752 92 157 3.0 5.0 0.00 0.00 0.00 55 1018.5
20260902180248 91 178 2.0 2.0 0.00 0.00 0.00 56 1018.6
20260902175743 91 114 3.0 7.0 0.00 0.00 0.00 56 1018.6
20260902175238 91 264 6.0 8.0 0.00 0.00 0.00 58 1018.8
20260902174734 91 156 3.0 7.0 0.00 0.00 0.00 57 1018.8
20260902174230 91 220 3.0 6.0 0.00 0.00 0.00 59 1018.9
20260902173726 90 198 3.0 5.0 0.00 0.00 0.00 58 1018.8
20260902173226 91 217 3.0 5.0 0.00 0.00 0.00 60 1018.8
20260902172725 91 185 4.0 6.0 0.00 0.00 0.00 61 1019.0
20260902172225 90 217 2.0 6.0 0.00 0.00 0.00 61 1018.9
20260902171721 89 149 0.0 6.0 0.00 0.00 0.00 62 1019.1
20260902171216 89 211 6.0 7.0 0.00 0.00 0.00 62 1019.6
20260902170712 89 235 3.0 7.0 0.00 0.00 0.00 63 1019.5
20260902170207 90 217 4.0 6.0 0.00 0.00 0.00 63 1019.2
20260902165702 89 161 1.0 2.0 0.00 0.00 0.00 64 1019.5
20260902165202 89 224 3.0 6.0 0.00 0.00 0.00 63 1019.3
20260902164657 89 194 3.0 6.0 0.00 0.00 0.00 64 1019.6
20260902164156 89 191 3.0 5.0 0.00 0.00 0.00 64 1019.6
20260902163651 88 260 5.0 8.0 0.00 0.00 0.00 65 1019.6
20260902163151 89 279 3.0 7.0 0.00 0.00 0.00 64 1019.7
20260902162649 90 85 3.0 6.0 0.00 0.00 0.00 66 1019.9
20260902162144 89 253 4.0 5.0 0.00 0.00 0.00 64 1019.8
20260902161639 89 216 3.0 5.0 0.00 0.00 0.00 66 1019.8
20260902161135 88 74 1.0 2.0 0.00 0.00 0.00 66 1020.0
20260902160632 88 150 0.0 2.0 0.00 0.00 0.00 65 1019.9
20260902160126 88 100 2.0 5.0 0.00 0.00 0.00 66 1020.0
20260902155625 88 174 3.0 6.0 0.00 0.00 0.00 67 1020.3
20260902155123 88 200 2.0 2.0 0.00 0.00 0.00 68 1019.9
20260902154619 87 146 1.0 1.0 0.00 0.00 0.00 71 1020.3
20260902154114 86 192 4.0 6.0 0.00 0.00 0.00 71 1020.1
20260902153612 86 200 3.0 6.0 0.00 0.00 0.00 71 1020.1
20260902153108 86 189 4.0 5.0 0.00 0.00 0.00 71 1019.9
20260902152604 86 187 2.0 3.0 0.00 0.00 0.00 73 1020.0
20260902152059 86 173 1.0 2.0 0.00 0.00 0.00 73 1020.2
20260902151555 85 187 3.0 3.0 0.00 0.00 0.00 75 1020.2
20260902151055 85 181 2.0 5.0 0.00 0.00 0.00 74 1020.1
20260902150550 84 190 1.0 6.0 0.00 0.00 0.00 75 1020.2
20260902150045 84 174 2.0 3.0 0.00 0.00 0.00 75 1020.0
20260902145540 84 208 3.0 5.0 0.00 0.00 0.00 75 1020.2
20260902145040 84 152 1.0 5.0 0.00 0.00 0.00 76 1019.9
20260902144537 84 265 3.0 5.0 0.00 0.00 0.00 75 1019.9
20260902144037 84 203 1.0 3.0 0.00 0.00 0.00 76 1019.9
20260902143537 83 139 0.0 3.0 0.00 0.00 0.00 76 1019.9
20260902143033 83 222 3.0 5.0 0.00 0.00 0.00 75 1020.0
20260902142529 83 194 3.0 3.0 0.00 0.00 0.00 77 1020.0
20260902142024 83 195 2.0 3.0 0.00 0.00 0.00 79 1019.9
20260902141524 83 185 2.0 2.0 0.00 0.00 0.00 78 1020.2
20260902141020 83 132 1.0 2.0 0.00 0.00 0.00 80 1020.0
20260902140519 83 154 1.0 1.0 0.00 0.00 0.00 81 1020.1
20260902140015 82 129 0.0 0.0 0.00 0.00 0.00 82 1020.1
20260902135509 82 173 1.0 2.0 0.00 0.00 0.00 83 1020.0
20260902135009 81 149 0.0 0.0 0.00 0.00 0.00 82 1020.1
20260902134506 81 145 0.0 0.0 0.00 0.00 0.00 84 1020.0
20260902134005 81 135 0.0 0.0 0.00 0.00 0.00 84 1020.1
20260902133500 80 145 0.0 0.0 0.00 0.00 0.00 85 1020.1
20260902132955 80 125 0.0 1.0 0.00 0.00 0.00 87 1020.0
20260902132445 79 141 0.0 1.0 0.00 0.00 0.00 88 1019.9
20260902131945 78 131 0.0 1.0 0.00 0.00 0.00 88 1020.0
20260902131441 78 129 0.0 1.0 0.00 0.00 0.00 88 1020.0
20260902130941 78 104 0.0 1.0 0.00 0.00 0.00 89 1019.9
20260902130437 78 115 0.0 0.0 0.00 0.00 0.00 90 1020.1
20260902125937 78 101 0.0 0.0 0.00 0.00 0.00 90 1020.0
20260902125433 77 103 0.0 0.0 0.00 0.00 0.00 91 1020.2
20260902124929 77 113 1.0 1.0 0.00 0.00 0.00 92 1020.0
20260902124425 75 122 0.0 0.0 0.00 0.00 0.00 95 1020.0
20260902123920 74 143 0.0 0.0 0.00 0.00 0.00 98 1019.9
20260902123416 73 91 0.0 1.0 0.00 0.00 0.00 99 1020.0
20260902122914 72 83 1.0 1.0 0.00 0.00 0.00 99 1020.1
20260902122410 71 120 0.0 0.0 0.00 0.00 0.00 99 1019.9
20260902121906 71 139 0.0 0.0 0.00 0.00 0.00 99 1019.9
20260902121400 71 132 0.0 1.0 0.00 0.00 0.00 99 1019.8
20260902120855 71 135 0.0 1.0 0.00 0.00 0.00 99 1019.9
20260902120352 71 128 0.0 1.0 0.00 0.00 0.00 99 1019.8
20260902115852 70 121 1.0 2.0 0.00 0.00 0.00 99 1019.7
20260902115348 70 98 1.0 2.0 0.00 0.00 0.00 99 1019.7
20260902114844 70 94 1.0 2.0 0.00 0.00 0.00 99 1019.7
20260902114340 70 83 0.0 0.0 0.00 0.00 0.00 99 1019.5
20260902113840 70 118 1.0 1.0 0.00 0.00 0.00 99 1019.3
20260902113336 70 123 0.0 0.0 0.00 0.00 0.00 99 1019.5
20260902112834 70 85 0.0 1.0 0.00 0.00 0.00 99 1019.3
20260902112331 70 106 0.0 0.0 0.00 0.00 0.00 99 1019.4
20260902111827 70 121 0.0 0.0 0.00 0.00 0.00 99 1019.3
20260902111323 70 123 0.0 0.0 0.00 0.00 0.00 99 1019.1
20260902110818 70 135 0.0 0.0 0.00 0.00 0.00 99 1019.1
20260902110314 70 116 0.0 0.0 0.00 0.00 0.00 99 1019.0
20260902105814 70 114 0.0 0.0 0.00 0.00 0.00 99 1019.0
20260902105309 70 131 0.0 1.0 0.00 0.00 0.00 99 1018.8
20260902104804 70 121 0.0 1.0 0.00 0.00 0.00 99 1019.0
20260902104255 70 121 0.0 1.0 0.00 0.00 0.00 99 1018.9
20260902103754 70 111 0.0 2.0 0.00 0.00 0.00 99 1018.8
20260902103254 70 122 0.0 0.0 0.00 0.00 0.00 99 1018.8
20260902102750 70 92 1.0 2.0 0.00 0.00 0.00 99 1018.7
20260902102247 70 117 0.0 0.0 0.00 0.00 0.00 99 1018.7
20260902101742 70 119 0.0 0.0 0.00 0.00 0.00 99 1018.5
20260902101237 70 113 0.0 1.0 0.00 0.00 0.00 99 1018.8
20260902100736 70 60 1.0 2.0 0.00 0.00 0.00 99 1018.7
20260902100231 70 120 0.0 0.0 0.00 0.00 0.00 99 1018.8
20260902095725 70 135 0.0 1.0 0.00 0.00 0.00 99 1018.8
20260902095220 70 134 0.0 1.0 0.00 0.00 0.00 99 1018.8
20260902094715 70 106 1.0 1.0 0.00 0.00 0.00 99 1018.7